Theta_e
331 330 329 329 330 329 329 328 327 326 327 327 325 323 324 324 322 320 320 320 320 319 319 316 315 314 315 314 314 314 316 317 315 315 311 310 313 311 311 307 308 305 304 301 300 298 294 293 295 298 298 298 300 298 304 302 301 300 298 298 299 301 300
331 330 329 329 328 328 327 325 325 325 324 324 324 323 322 322 324 320 319 318 318 318 319 315 313 313 312 311 311 311 313 312 314 314 312 309 310 309 304 302 303 301 301 302 303 300 297 294 294 295 296 297 298 296 298 298 299 300 302 300 305 304 305
330 328 328 327 326 325 326 324 323 323 322 322 322 322 321 321 321 320 318 317 316 317 317 313 312 310 309 309 309 310 309 309 308 311 312 308 309 305 306 304 302 300 300 301 300 298 298 296 297 295 295 295 293 293 298 299 299 298 299 299 299 300 300
328 327 326 325 324 323 324 322 321 321 321 321 320 320 319 317 317 319 316 315 315 319 315 312 311 310 309 308 308 308 308 307 306 307 307 305 305 304 302 305 304 304 302 300 299 299 297 294 295 296 295 295 293 295 299 300 303 300 300 300 299 298 298
329 328 327 325 324 324 325 323 321 320 319 319 318 316 314 313 316 315 316 315 315 312 311 310 310 309 309 308 307 306 305 304 305 307 304 302 302 301 300 300 300 301 299 300 300 301 300 296 298 295 295 295 296 296 300 298 299 299 299 298 297 297 297
330 329 328 326 325 325 324 323 320 319 318 317 316 315 312 313 314 313 312 312 311 311 310 309 308 309 308 307 307 305 304 304 303 303 302 301 302 301 300 299 299 300 299 298 299 298 297 297 297 293 295 293 293 294 296 296 296 296 296 297 298 297 298
330 329 328 327 326 325 324 323 322 320 318 317 315 314 312 313 313 313 313 310 310 310 309 309 308 308 307 306 305 304 303 302 302 301 301 301 300 299 300 299 298 298 297 298 297 297 296 297 295 296 294 292 291 293 294 292 293 292 296 295 296 297 297
330 329 328 328 326 325 324 323 322 319 318 316 315 313 313 311 311 311 310 309 308 309 309 309 309 307 307 307 305 304 303 302 302 302 301 300 300 299 298 298 299 298 297 296 296 296 296 297 296 295 295 293 291 291 292 293 292 294 294 293 294 297 298
330 329 328 327 326 325 324 324 321 319 317 315 313 313 312 310 309 309 310 308 308 308 308 308 307 307 305 305 303 303 303 304 301 301 300 300 299 299 299 298 298 297 297 297 297 296 295 296 296 295 295 295 293 289 290 291 291 294 295 294 294 295 297
329 328 328 326 325 325 324 324 321 318 316 315 314 313 311 309 309 309 308 307 307 307 307 307 307 305 305 305 302 302 301 301 302 300 299 299 298 298 297 297 298 297 297 298 297 298 297 295 295 295 294 294 294 292 288 288 290 289 294 294 293 294 296
329 329 328 326 325 324 323 322 319 317 316 315 314 313 310 308 308 311 306 306 306 306 306 306 305 304 304 302 302 301 300 301 300 300 300 299 298 299 299 298 298 297 297 296 297 297 296 295 294 295 294 293 293 294 288 289 289 288 292 292 294 294 295
329 328 328 327 325 323 322 321 319 318 316 315 314 312 309 308 307 306 306 305 305 305 305 305 304 303 303 302 301 300 300 300 300 298 298 299 298 299 298 297 296 296 296 297 297 297 297 296 295 294 294 295 295 294 289 286 287 290 292 292 291 294 295
329 328 327 326 324 324 323 321 319 317 316 316 313 311 309 308 307 305 305 305 305 304 304 304 304 303 302 302 301 300 300 299 299 299 298 298 300 298 297 297 296 296 296 297 297 297 297 297 296 296 297 296 294 292 290 286 286 290 291 292 292 293 293
328 328 327 326 325 323 322 321 320 319 317 315 312 310 309 308 306 306 305 306 304 304 303 303 303 302 302 301 300 300 299 299 299 298 300 298 298 298 298 297 296 297 297 297 297 297 296 296 296 297 297 295 293 291 291 288 289 290 290 290 291 292 292
329 328 326 325 324 323 321 321 320 319 317 314 312 311 309 308 307 306 305 304 304 304 303 303 302 302 302 300 299 300 299 299 299 298 298 298 297 299 297 297 296 296 296 296 296 297 296 295 295 294 293 293 291 292 291 289 289 286 287 288 290 290 291
328 326 325 325 324 323 322 321 321 319 317 313 312 311 310 308 307 305 305 304 303 303 303 302 302 302 301 300 300 299 300 299 299 299 298 298 297 297 297 298 296 296 298 296 296 295 295 294 294 293 292 292 292 291 291 289 286 286 286 288 288 289 289
328 327 325 325 324 323 322 321 320 319 317 313 311 311 310 309 307 305 305 304 303 303 302 302 301 301 301 300 300 299 299 299 299 299 298 298 297 297 297 297 297 296 296 295 293 293 293 292 292 292 291 291 291 291 291 290 288 287 287 289 288 289 290
327 326 326 325 324 324 323 321 320 319 316 313 311 310 310 308 306 305 304 303 303 303 302 302 301 300 300 300 300 300 299 299 298 298 298 298 302 298 298 297 296 295 294 293 291 292 291 291 291 291 290 290 290 291 292 291 289 288 286 287 288 287 288
327 326 326 325 324 324 323 321 319 318 315 313 311 310 308 307 306 304 304 304 303 303 302 302 301 301 300 300 300 299 299 299 299 298 298 298 299 298 298 297 295 294 293 293 291 290 290 290 290 290 289 289 290 289 289 289 289 288 287 287 287 288 286
327 327 326 325 324 324 322 320 318 317 315 313 310 308 307 306 306 305 304 304 303 303 302 302 301 300 300 300 299 299 299 298 298 298 298 299 298 298 298 296 294 293 293 292 291 291 290 289 291 289 290 289 288 289 289 288 288 287 286 287 286 286 287
328 327 326 325 324 323 322 320 318 317 315 312 310 308 307 306 306 305 304 304 303 303 302 301 300 300 300 300 299 299 299 298 298 298 298 298 298 297 297 296 294 293 293 292 292 290 291 290 290 290 288 289 288 289 288 288 287 286 286 286 287 286 286
328 327 325 324 323 322 321 319 318 316 314 313 311 309 308 307 305 304 303 303 303 303 302 301 301 300 300 299 299 299 298 299 298 298 297 297 296 296 295 294 293 292 296 300 300 298 296 295 291 289 288 289 288 289 287 287 288 285 285 286 287 286 285
327 326 325 323 322 322 320 319 317 315 314 313 311 309 308 307 305 304 303 302 302 302 302 302 304 304 303 301 299 299 299 298 298 298 298 296 294 294 294 293 297 303 305 305 302 299 298 299 299 293 290 290 290 288 287 286 286 287 287 287 287 286 286
327 325 324 323 322 321 320 318 316 315 314 313 311 310 309 307 306 304 303 302 301 302 302 303 301 298 298 301 301 299 299 298 298 298 297 296 294 294 293 293 294 304 305 304 300 298 298 298 298 298 298 297 296 290 287 287 286 286 289 287 285 285 285
326 325 323 322 321 321 320 318 316 314 313 312 311 310 309 308 306 304 303 302 301 302 302 303 297 297 297 298 301 300 299 299 299 298 298 296 295 294 293 293 295 298 296 295 294 294 296 296 295 295 294 295 295 297 297 292 291 287 286 286 285 286 285
325 323 323 322 321 320 319 317 315 314 313 312 311 310 308 308 306 304 303 302 301 302 302 300 296 297 296 297 298 300 299 299 299 299 298 296 294 294 294 295 295 295 296 303 300 290 291 292 297 295 295 296 295 292 290 291 294 293 288 287 287 286 286
324 323 322 321 320 319 318 316 315 315 314 312 311 309 308 307 306 304 303 302 302 302 302 300 296 296 296 296 296 298 300 300 299 298 297 295 295 293 293 294 295 294 292 296 293 290 291 290 290 290 289 288 290 295 295 293 292 293 294 291 288 288 289
323 322 322 321 319 318 317 316 315 314 313 311 310 308 308 306 305 305 304 303 302 302 303 298 295 295 295 295 295 298 300 300 299 298 298 297 295 294 294 294 294 293 293 295 295 293 291 289 288 289 289 290 289 290 291 291 290 289 292 291 290 290 290
323 322 321 320 318 317 317 316 315 313 312 311 311 310 308 307 305 304 304 302 302 302 303 296 295 295 295 295 295 300 299 299 298 298 297 297 296 296 295 294 293 293 294 295 299 295 294 290 289 289 290 288 289 288 290 297 294 294 293 290 290 290 290
322 321 320 319 318 316 315 315 315 313 312 311 309 308 307 306 306 305 303 303 302 302 302 296 294 295 295 294 297 300 299 298 298 297 297 298 299 297 296 295 294 294 295 295 297 292 292 293 288 288 288 287 287 288 291 289 293 293 293 292 291 292 292
322 320 319 318 318 317 317 316 314 313 311 309 308 308 307 306 305 305 303 303 303 302 301 298 294 295 295 294 299 300 299 298 297 298 298 299 299 299 299 302 299 295 295 295 294 291 291 293 289 288 287 287 287 288 287 286 289 290 293 292 292 291 291
322 320 319 319 318 317 316 315 313 312 311 310 309 308 307 306 305 304 304 303 306 303 301 298 294 295 294 295 300 301 300 298 298 299 299 300 299 299 298 303 304 299 297 296 293 291 291 293 289 288 287 286 286 285 285 284 287 286 287 288 287 290 291
320 319 319 318 316 315 313 312 309 309 308 308 306 306 306 305 304 303 303 303 304 303 301 299 296 294 295 295 298 301 300 300 299 299 300 300 299 297 298 298 301 295 294 293 292 290 290 292 290 288 287 285 284 285 283 284 288 287 287 288 287 288 290
319 318 319 317 315 313 312 310 307 308 307 306 305 305 304 304 304 303 303 303 303 302 301 299 297 293 294 295 296 299 301 301 301 301 299 299 299 298 296 298 298 296 293 292 291 290 290 291 292 289 288 286 286 287 288 285 290 294 288 290 289 288 290
319 318 317 315 313 311 308 308 308 308 306 305 304 303 303 303 303 302 302 302 302 302 303 301 298 294 294 294 295 297 301 302 302 301 299 298 296 296 296 298 296 295 292 291 290 290 290 291 290 293 289 289 289 290 289 289 287 287 287 288 287 288 289
316 316 316 314 313 310 307 306 306 306 305 303 303 302 302 302 302 301 301 301 302 301 301 301 297 297 293 294 294 296 297 298 295 301 298 296 295 295 294 296 297 296 291 290 290 290 290 290 291 291 290 289 289 289 290 287 287 286 285 286 287 288 287
316 314 311 309 309 307 305 305 305 304 303 303 303 302 301 301 301 301 300 300 300 301 301 300 297 296 295 293 294 294 294 294 294 297 298 297 296 295 293 294 295 293 291 290 290 290 290 290 290 290 289 289 289 290 288 287 285 286 287 286 285 285 287
Wind_Speed
10 9 7 6 5 6 6 6 5 5 4 5 6 5 5 5 5 5 4 4 4 4 4 5 5 4 4 2 2 4 5 6 7 7 6 6 7 4 1 2 3 3 3 4 4 6 5 4 2 1 1 2 0 1 0 0 1 3 1 2 3 4 5
8 7 6 6 7 6 7 5 5 5 5 4 4 5 5 5 4 5 4 4 4 4 3 4 3 4 5 5 4 4 5 5 5 5 6 7 5 5 4 2 4 4 3 3 4 4 3 3 1 3 3 1 0 2 1 1 1 0 1 3 2 3 3
7 6 7 7 6 6 7 6 4 5 5 5 4 4 4 4 4 4 4 5 5 4 3 5 4 3 3 3 4 4 4 5 3 4 6 6 6 4 4 6 4 2 2 2 1 3 3 1 5 4 4 5 3 2 1 2 2 2 3 3 4 4 4
11 10 9 7 7 6 7 7 5 4 4 5 5 4 4 4 4 4 4 4 4 4 5 5 5 5 3 3 3 3 3 5 5 4 3 3 3 3 3 6 7 8 7 5 6 4 3 2 2 0 1 3 3 1 2 2 1 3 3 5 5 5 4
13 11 12 11 10 10 10 9 6 7 6 5 4 5 4 4 5 4 4 5 5 5 5 3 3 4 4 3 3 3 3 3 3 4 4 5 4 4 3 3 4 4 3 4 6 6 7 5 5 4 3 1 1 1 2 2 4 5 6 5 4 4 4
12 12 12 11 10 10 9 8 7 7 6 6 6 6 5 5 5 6 5 6 5 4 5 4 3 4 4 4 4 3 4 4 5 5 6 4 6 6 5 2 4 3 3 2 5 6 2 5 6 5 0 1 2 1 1 1 3 3 3 4 4 4 4
12 12 11 11 10 9 9 10 9 9 9 8 7 7 6 5 4 5 6 5 5 5 5 4 4 4 4 5 4 5 4 3 4 4 6 5 5 4 5 6 3 5 3 3 4 6 6 6 4 6 4 3 2 2 1 3 2 3 0 2 2 4 5
11 10 10 10 10 9 7 7 7 6 8 7 8 6 6 6 5 5 5 6 5 5 5 5 4 4 4 4 4 4 4 3 5 6 5 6 7 5 4 5 5 5 4 3 4 4 5 5 7 7 8 7 3 4 3 2 3 4 1 1 1 5 5
10 10 9 8 9 10 12 11 9 8 6 7 5 7 6 6 7 6 5 6 5 5 5 5 5 5 4 6 5 5 5 2 6 6 5 6 6 5 6 4 6 4 3 3 3 4 2 3 5 4 5 8 9 3 1 2 2 1 1 2 1 1 5
13 13 11 11 11 11 12 10 8 7 7 7 7 6 7 5 6 7 6 6 5 5 5 5 5 5 5 5 6 5 6 4 5 6 5 6 5 5 5 5 6 5 3 3 4 4 4 3 3 4 4 6 7 8 4 3 0 1 0 1 2 3 4
12 12 11 12 11 10 9 8 7 7 8 8 8 6 7 7 6 6 7 6 5 5 6 5 5 5 5 5 5 5 4 5 6 4 4 6 5 5 5 5 5 6 3 4 4 3 3 3 5 4 4 3 4 8 5 6 2 1 0 1 0 2 4
11 11 10 11 11 11 11 9 10 9 8 8 8 8 7 7 6 6 6 6 5 5 5 5 5 5 5 6 4 6 4 5 6 5 3 5 4 6 6 6 4 5 3 4 4 3 3 3 5 5 5 5 4 5 7 6 5 1 1 1 1 1 1
11 11 11 12 11 12 12 11 10 9 10 8 8 8 8 8 7 7 6 7 6 5 5 4 5 5 5 5 6 6 5 5 6 6 4 3 4 5 6 6 4 4 3 4 4 4 4 3 3 5 5 5 5 4 6 5 6 3 2 1 1 3 3
13 11 11 12 12 11 10 10 11 10 9 9 9 9 8 8 7 7 7 7 7 7 6 6 4 5 5 5 4 5 5 5 7 5 5 4 4 5 5 5 4 3 3 6 4 5 5 5 5 5 5 5 6 3 5 5 6 4 1 1 1 2 3
12 11 12 12 11 11 10 10 10 9 10 9 9 9 9 7 7 8 7 7 7 6 6 6 5 5 6 6 5 4 6 6 6 5 5 5 4 4 5 6 4 3 3 6 4 5 5 5 5 6 5 6 5 3 1 4 3 2 1 2 4 3 2
13 13 13 11 12 11 11 11 11 11 10 9 8 9 9 8 8 8 7 7 7 6 7 6 5 6 6 7 7 5 5 6 7 7 6 6 5 4 5 5 4 4 3 6 4 4 4 5 5 7 5 4 5 4 4 4 4 3 3 0 1 2 2
14 14 13 11 13 12 11 11 11 11 10 9 9 7 8 9 8 8 8 7 7 7 6 6 6 5 7 7 7 7 5 5 6 6 6 6 5 5 6 6 4 4 5 6 4 4 4 5 6 5 5 3 5 5 4 4 3 4 1 1 1 1 2
14 15 15 12 13 12 12 11 10 11 10 9 9 8 7 7 8 8 8 8 7 7 7 7 7 5 5 5 7 7 6 6 5 5 5 6 6 6 6 6 5 4 6 7 4 5 4 5 4 5 5 4 5 4 3 4 4 3 4 2 1 2 2
15 15 15 13 14 13 11 11 11 9 11 11 9 9 10 8 8 8 8 8 8 8 7 7 7 7 7 6 6 6 6 5 5 5 5 5 5 5 6 6 5 5 6 7 5 4 5 6 4 5 5 4 4 4 5 3 3 3 3 1 1 1 2
14 14 14 13 12 11 11 11 12 11 10 11 11 10 8 9 7 8 8 8 8 8 8 7 7 7 7 6 6 6 6 5 5 5 5 5 4 4 5 6 5 5 6 6 7 6 5 5 5 5 5 5 4 5 4 3 3 3 3 1 1 1 2
13 13 12 12 13 12 12 12 12 11 11 11 11 11 11 10 8 7 8 8 8 8 8 7 7 7 7 7 7 6 6 6 6 5 5 4 4 5 5 5 5 5 6 6 6 5 6 6 4 5 4 4 4 5 4 3 3 3 2 1 0 1 2
12 12 13 13 13 12 12 12 12 12 12 11 9 10 10 10 9 8 7 8 8 7 8 8 7 7 8 7 6 7 6 6 6 6 5 4 4 5 5 5 5 5 4 7 9 7 7 7 6 6 3 4 4 5 3 3 3 3 2 1 1 1 1
13 13 13 14 15 14 12 12 12 12 12 12 11 10 10 9 10 11 10 8 8 7 7 6 8 13 10 8 7 6 6 6 6 6 6 5 4 4 5 5 5 9 9 10 9 9 9 8 7 7 6 5 4 4 4 3 2 2 1 1 1 1 3
13 14 14 13 13 14 14 13 13 12 12 11 12 11 11 11 10 10 11 10 9 8 7 7 13 14 14 14 9 7 7 7 6 6 6 6 6 5 4 4 4 6 7 7 7 10 9 8 8 8 8 7 6 5 4 3 2 3 3 1 2 1 1
14 14 14 14 14 14 12 11 12 13 12 12 11 10 12 12 11 10 9 9 9 8 8 10 15 15 14 15 12 9 7 7 6 6 6 6 6 5 5 4 3 3 5 5 5 5 6 6 7 6 6 6 5 6 5 4 3 3 3 2 1 2 1
14 14 14 14 13 13 12 12 12 13 14 13 11 12 10 8 9 9 9 10 9 8 8 12 15 15 15 15 15 11 7 7 8 7 8 8 6 6 5 5 4 3 4 9 5 4 4 3 3 5 5 5 5 6 7 7 7 3 5 3 2 1 4
14 14 13 13 13 13 14 14 14 13 13 12 12 11 13 14 11 11 11 11 10 9 8 12 16 16 15 16 15 11 8 9 8 8 8 7 7 7 6 6 6 4 3 3 4 4 3 4 3 3 2 2 2 1 3 7 8 7 5 4 3 2 3
14 14 14 14 13 14 14 14 14 13 12 13 13 13 13 12 11 11 10 10 9 10 8 14 16 16 15 15 15 12 7 7 7 7 7 7 8 8 7 7 7 7 6 4 5 5 5 4 4 3 3 1 1 1 1 2 4 4 4 4 4 5 4
14 15 15 14 14 14 14 15 16 13 12 11 11 11 11 11 12 12 11 10 10 10 8 16 16 16 16 15 15 8 8 8 7 7 6 6 7 8 7 7 7 6 6 6 6 10 8 5 4 4 3 1 1 1 1 2 3 4 4 5 5 5 5
14 15 15 15 15 15 14 13 13 11 12 11 12 12 12 12 11 11 11 11 11 10 8 14 17 17 17 18 13 7 7 7 7 8 8 8 7 6 6 6 7 6 6 6 7 10 10 8 4 4 4 2 0 0 2 1 2 3 6 7 7 8 9
15 14 15 16 16 16 16 15 15 13 14 12 12 12 12 10 10 10 12 12 12 11 10 13 18 18 17 16 14 10 8 8 7 8 8 7 6 6 6 11 8 7 7 7 9 11 11 8 5 4 4 3 2 1 2 2 2 2 3 4 6 7 9
14 16 16 16 16 17 17 15 12 10 10 11 11 10 8 10 9 8 10 10 9 11 10 12 16 17 17 17 13 8 8 8 8 7 7 7 5 6 5 8 12 10 9 9 12 12 12 8 5 5 5 4 3 2 3 1 1 2 3 4 2 4 3
11 13 16 15 11 10 8 7 6 9 8 8 9 10 11 10 11 10 9 9 10 11 11 10 13 17 18 18 17 10 8 9 9 8 7 7 7 5 5 6 9 13 13 12 13 14 13 11 7 5 4 4 4 3 3 2 1 1 1 1 3 3 5
12 12 15 15 13 11 10 8 9 12 12 9 9 8 8 7 8 7 7 8 9 9 10 12 12 17 18 18 17 15 9 10 9 9 8 7 6 6 6 6 6 10 13 12 14 14 13 12 8 6 6 5 6 3 6 3 1 3 1 1 2 4 5
16 15 10 9 8 7 5 7 9 9 8 7 9 9 8 10 10 8 7 8 9 10 9 14 12 15 17 17 17 17 10 9 10 9 8 7 6 6 7 7 6 9 13 13 14 14 14 12 11 5 7 8 6 7 4 2 2 1 2 2 4 5 6
10 7 11 13 14 12 10 10 10 10 9 9 8 8 8 9 9 9 8 7 7 8 8 10 15 14 15 17 17 16 14 10 11 9 9 8 8 7 6 6 6 10 13 13 14 15 14 13 9 7 9 7 8 7 4 2 1 1 2 2 3 5 6
14 11 9 6 9 12 12 11 10 9 9 11 11 10 7 7 8 9 10 7 6 6 6 8 10 15 14 17 15 15 13 13 12 7 7 7 7 7 7 6 7 11 13 14 14 13 13 11 9 11 8 8 8 6 2 2 1 0 0 1 3 4 6
Wind_Direction
184 175 170 161 152 151 159 167 158 167 164 157 149 151 157 156 155 156 152 146 136 140 137 147 156 153 134 115 164 176 165 173 178 173 185 179 172 205 106 79 66 75 79 89 139 162 158 163 248 265 256 302 330 321 313 284 213 231 292 354 350 346 350
170 162 153 149 151 154 154 156 161 164 158 152 153 154 162 158 163 158 153 144 140 140 128 129 134 150 159 152 141 142 163 180 185 178 162 189 181 177 118 61 75 64 57 62 100 89 133 115 252 200 226 344 22 316 319 267 256 178 33 2 341 10 355
157 146 152 153 154 156 160 162 161 160 159 155 160 158 154 164 159 155 154 151 147 141 132 143 135 131 139 149 162 163 159 159 178 165 182 176 185 166 169 151 122 91 67 63 67 88 55 81 164 203 206 169 188 273 311 278 294 47 36 23 28 12 21
162 156 154 155 145 155 154 144 141 173 175 168 159 154 154 154 154 154 149 146 143 143 136 143 154 150 153 143 135 125 139 152 152 138 105 121 135 121 126 166 172 171 175 174 192 184 146 131 71 84 196 189 177 190 4 328 6 48 53 41 49 37 29
165 167 167 164 168 170 168 167 165 152 165 162 158 146 156 162 148 146 147 139 139 138 147 143 138 137 133 124 117 123 116 104 118 124 134 133 125 107 104 132 150 144 136 163 180 165 167 188 152 168 161 140 63 252 294 6 56 60 72 69 55 49 26
172 169 168 167 173 174 169 162 164 167 157 160 176 165 178 168 151 142 147 146 142 144 137 130 135 134 132 124 127 118 126 139 147 142 139 144 145 147 144 110 124 128 139 128 125 135 99 130 137 113 85 106 161 121 334 41 80 64 69 88 66 36 35
174 169 169 170 175 171 168 175 177 171 171 175 170 178 171 165 163 164 157 152 145 138 139 139 139 139 129 128 129 129 127 120 108 112 118 117 103 107 122 117 100 113 112 106 126 130 143 127 141 146 136 38 74 75 335 35 351 99 337 41 34 39 29
171 170 171 171 168 166 166 174 179 167 169 171 172 164 162 162 158 153 154 146 143 138 134 132 127 117 115 105 106 111 99 109 113 116 118 124 119 117 105 116 116 86 99 111 121 134 140 157 154 162 138 119 45 29 30 22 25 57 297 283 320 29 20
169 167 168 167 166 164 173 185 179 173 166 155 156 155 168 159 157 155 152 147 141 138 139 136 135 130 129 122 114 115 111 115 121 114 118 109 114 116 112 113 97 94 90 98 93 112 115 141 137 142 142 138 138 126 20 63 15 74 357 21 311 9 25
173 173 171 166 166 170 174 181 175 168 151 154 157 162 157 163 157 154 148 144 142 140 135 136 135 132 131 126 129 124 120 118 112 117 120 114 118 117 106 109 113 115 104 99 88 89 95 83 94 129 146 155 152 132 150 140 239 174 328 358 52 310 6
174 171 166 165 165 164 169 164 150 151 166 164 160 162 158 156 156 151 143 143 141 139 141 138 135 132 123 116 123 119 128 124 109 97 110 119 124 118 113 99 105 101 90 86 90 86 84 90 87 92 96 125 146 149 161 142 162 205 12 315 88 341 334
171 168 165 162 162 167 168 168 166 164 154 157 157 158 159 157 152 146 143 141 143 141 137 138 134 129 128 123 124 121 120 120 117 116 128 125 134 120 117 108 96 97 90 95 86 82 81 86 85 76 73 86 77 124 131 121 117 257 159 1 302 287 309
171 168 165 162 168 173 172 167 163 159 167 162 164 161 161 160 157 150 149 146 146 143 140 137 137 132 127 131 132 125 129 124 122 130 132 114 122 119 117 116 111 115 112 102 94 95 95 85 93 82 74 69 64 88 106 106 113 150 244 189 269 288 328
172 166 165 170 170 170 168 167 170 169 155 166 161 164 165 164 158 154 151 154 154 152 145 142 140 137 133 130 125 129 131 133 129 135 129 115 106 118 120 120 127 131 134 108 114 108 100 101 86 82 80 79 72 50 92 98 110 133 326 253 254 288 303
168 166 168 170 169 166 166 169 168 161 168 166 166 166 164 161 157 154 154 155 154 151 150 147 148 142 138 133 131 136 138 139 136 138 132 136 131 126 128 128 135 134 120 113 114 105 116 105 102 88 71 89 85 63 126 107 120 122 158 320 350 313 317
169 167 169 171 172 169 168 168 168 167 168 164 168 166 163 161 160 157 156 157 153 153 154 151 152 148 147 149 147 148 152 150 149 149 150 151 150 138 131 136 141 137 121 98 92 102 103 99 98 99 97 97 98 77 58 100 115 108 116 25 262 317 322
170 168 172 174 173 171 168 169 169 169 165 161 165 166 163 161 158 160 158 157 157 155 151 149 150 155 155 154 152 154 158 159 157 157 155 153 150 148 147 138 152 142 122 109 113 105 96 102 102 106 103 100 105 96 80 78 93 134 159 103 312 214 277
174 172 171 172 174 171 170 167 169 167 158 163 163 158 163 160 158 161 163 162 159 158 158 155 153 153 155 158 157 158 164 163 159 157 155 154 155 151 150 149 154 142 126 119 124 119 125 109 113 108 110 117 109 109 86 87 87 95 120 131 282 272 278
178 176 171 169 171 172 169 166 166 165 164 163 162 166 163 165 166 167 165 165 161 161 159 158 157 159 162 162 159 161 160 157 158 156 157 163 158 155 150 150 152 147 137 136 147 140 130 125 119 114 118 117 114 104 100 84 90 97 108 165 193 303 336
178 174 171 167 166 169 168 165 165 166 168 165 164 165 167 164 170 166 165 160 163 161 159 157 157 161 163 163 162 160 157 155 155 156 165 165 151 141 146 148 151 154 145 144 147 151 142 133 131 138 144 138 128 106 103 108 103 96 103 88 298 250 279
174 173 169 164 165 168 167 168 170 167 164 166 168 167 166 168 166 165 163 164 164 159 158 159 161 164 165 166 164 162 159 157 154 157 160 147 140 146 150 152 157 166 157 158 151 159 146 144 138 137 157 128 124 107 116 120 96 105 93 65 166 287 300
171 169 167 164 163 167 170 172 170 167 168 168 168 168 165 163 159 159 160 161 160 162 163 166 166 166 167 170 162 159 160 156 155 155 149 143 142 143 150 157 166 171 168 165 161 156 163 150 146 146 179 138 127 118 117 100 123 111 95 108 332 294 319
170 167 168 170 165 167 171 173 171 169 168 168 166 165 166 167 165 164 163 165 163 165 171 168 173 171 169 164 163 158 157 159 158 153 149 144 149 158 159 163 177 176 172 160 154 157 158 156 154 152 165 157 143 131 140 131 141 158 153 109 289 319 2
167 169 170 167 166 168 174 173 170 168 167 168 168 169 168 167 170 167 167 166 168 171 173 176 173 171 169 163 158 160 162 163 156 148 149 155 162 171 176 176 177 174 159 152 153 158 162 165 153 150 161 169 164 153 152 149 190 173 176 190 185 151 207
168 168 167 170 168 169 170 170 169 167 168 173 175 169 172 173 168 168 167 167 170 174 176 179 170 171 168 165 162 160 160 156 154 152 145 157 169 170 173 176 189 158 151 160 164 165 172 171 166 154 159 175 195 206 197 170 167 181 181 173 193 217 196
168 167 170 168 167 165 168 171 173 172 175 177 170 174 161 152 172 169 168 169 176 177 178 178 171 169 167 166 164 156 154 149 151 158 164 175 172 168 169 166 169 167 179 175 166 168 175 181 171 164 160 173 200 208 226 234 222 184 160 154 179 231 208
167 167 165 166 167 168 168 176 179 180 176 171 170 160 166 178 169 172 175 176 176 179 179 176 171 169 170 168 161 150 155 164 169 162 169 174 171 169 170 168 167 181 213 189 159 169 166 159 142 124 104 97 134 202 223 217 221 208 184 172 162 191 240
166 164 165 166 168 171 177 180 181 181 176 172 169 169 174 170 174 174 178 175 173 178 186 171 172 172 169 163 163 160 159 158 160 166 174 175 173 173 176 174 174 181 183 194 181 175 161 163 142 135 118 72 24 3 69 139 177 179 191 195 197 216 231
169 166 165 166 170 177 182 184 184 181 176 171 168 169 175 170 171 176 175 172 173 181 178 172 172 169 166 167 164 155 154 161 163 168 173 182 183 184 178 175 177 180 180 190 195 186 177 155 145 149 140 93 35 358 256 226 235 207 187 185 201 214 225
170 166 165 168 175 177 184 189 186 177 175 167 162 171 175 176 174 173 172 175 177 177 171 177 172 167 171 168 158 155 162 162 168 170 182 188 188 181 184 183 181 175 181 197 192 186 176 155 147 155 155 142 282 38 230 287 278 241 215 214 223 240 257
167 166 166 176 182 187 187 186 185 180 173 163 170 181 172 166 168 171 172 177 179 173 177 174 173 174 172 163 162 163 166 166 174 178 183 191 185 181 191 196 182 178 184 202 188 186 182 164 159 163 158 152 151 193 263 301 332 342 342 273 258 260 264
169 165 170 184 189 190 189 188 182 170 165 165 170 154 150 166 167 166 173 173 166 169 170 172 176 172 164 171 171 165 161 166 172 187 180 187 182 178 203 208 197 188 188 194 184 187 187 179 167 171 169 149 162 200 235 211 337 353 357 12 336 333 303
162 166 173 186 188 187 183 171 133 119 130 153 144 159 169 172 172 169 160 166 178 174 163 169 179 177 171 177 175 164 167 163 179 185 188 182 179 195 205 210 207 195 195 185 184 186 190 186 173 174 148 161 177 215 220 175 206 131 77 337 305 306 277
157 179 186 180 175 173 171 154 129 157 159 145 150 159 160 150 140 139 158 169 172 174 172 170 180 180 179 180 178 167 176 181 178 176 180 183 181 191 206 209 204 193 192 187 186 187 190 195 178 165 175 180 196 195 146 142 151 86 69 341 320 314 311
163 170 179 169 167 160 129 125 154 149 134 146 148 149 146 148 149 151 166 169 177 178 178 176 171 187 182 180 179 177 176 187 175 169 172 179 179 188 195 195 189 190 189 191 190 190 193 194 187 171 199 200 173 149 148 149 134 84 42 19 342 332 330
159 169 171 168 164 162 149 142 146 152 144 126 128 141 156 160 157 158 160 171 174 174 174 181 178 178 186 182 185 184 177 169 170 167 168 180 188 196 189 189 190 181 185 193 195 194 196 196 184 204 206 181 166 167 134 112 112 79 34 1 356 322 309
153 152 139 139 156 149 149 147 147 137 138 148 152 152 152 161 165 165 166 161 163 170 177 179 187 181 179 186 188 188 177 164 161 170 168 182 185 185 181 189 189 181 189 195 200 200 200 188 199 209 186 172 160 158 142 133 102 104 70 355 322 298 290